Theta_e
331 340 351 355 355 356 355 354 353 353 350 349 350 350 351 350 352 352 351 350 349 348 345 344 342 342 341 340 341 342 344 346 349 349 348 347 347 347 349 349 350 349 351
334 343 349 354 355 356 355 355 353 352 350 350 349 348 348 348 348 350 349 349 346 344 343 343 342 340 338 338 337 338 339 340 341 342 347 347 346 345 346 347 350 348 350
337 344 348 351 354 354 353 352 352 351 349 349 348 347 347 346 345 347 348 349 347 344 341 341 340 337 335 335 335 335 335 335 335 335 339 339 340 344 345 345 346 346 348
338 343 346 348 352 353 352 352 351 351 350 348 348 348 347 347 348 348 348 348 345 343 339 338 335 334 332 332 331 331 331 332 332 337 333 340 341 345 344 345 343 342 342
338 343 346 347 352 352 352 351 351 351 351 350 349 349 347 345 344 347 345 347 343 338 338 335 332 330 328 327 327 327 328 330 333 333 333 336 338 344 344 342 340 339 341
337 342 344 348 352 352 351 351 351 350 350 350 350 347 345 343 341 339 342 342 339 335 334 332 329 326 323 322 322 323 325 330 329 324 325 331 332 341 338 340 339 339 337
334 338 342 347 350 351 350 350 350 350 349 349 349 348 346 342 339 338 337 337 335 335 332 330 326 323 319 318 316 319 321 326 321 320 321 325 329 337 335 333 335 336 335
333 336 342 340 343 347 348 348 348 349 349 349 348 347 346 341 335 334 334 335 336 334 331 328 323 320 317 315 315 316 318 319 317 316 316 319 333 334 335 333 333 333 334
329 335 339 342 341 339 342 343 345 347 348 348 347 347 344 339 338 335 333 333 334 333 330 326 322 319 316 313 313 314 319 315 309 310 314 314 329 329 329 330 330 330 330
322 333 335 338 340 342 342 337 338 341 342 344 343 341 335 334 335 333 330 332 334 331 329 325 321 319 316 311 309 310 313 310 305 306 309 314 325 324 324 325 326 327 327
319 325 331 336 337 338 339 337 334 336 337 337 336 332 328 328 328 326 326 329 331 330 328 324 321 319 314 308 306 309 304 297 301 302 306 317 318 319 319 320 322 324 325
314 318 326 331 334 335 340 336 335 338 338 334 332 328 326 324 323 323 322 326 329 327 328 324 321 317 306 294 294 302 294 294 298 298 303 313 314 317 319 320 321 323 325
311 316 322 328 331 332 335 334 333 332 329 328 327 324 324 325 322 318 317 318 317 319 317 318 313 304 298 296 294 294 293 293 295 297 305 313 315 316 317 318 321 324 323
308 313 319 324 328 329 332 331 333 333 330 328 328 326 326 324 321 318 313 312 312 311 309 306 304 301 296 295 294 293 293 292 294 296 299 311 314 317 317 320 324 323 322
301 304 313 321 326 328 328 328 330 331 331 328 325 325 326 324 320 316 311 310 309 307 305 303 302 297 294 294 294 293 293 292 293 297 297 309 313 318 320 323 323 322 324
299 299 304 317 324 326 327 324 327 328 328 326 325 325 323 324 321 316 310 309 307 306 304 302 300 294 293 293 293 293 293 292 292 296 298 304 315 318 321 322 323 325 325
298 299 300 312 321 323 325 323 322 324 324 324 324 321 320 320 318 316 312 309 308 305 303 300 297 293 292 292 291 292 292 292 292 294 299 303 305 315 320 322 324 325 326
296 297 300 306 315 318 319 320 320 320 319 320 320 319 319 318 315 313 312 311 307 305 302 298 294 292 291 290 289 290 290 291 292 293 296 301 303 304 311 315 321 326 325
295 296 298 300 307 314 316 317 318 317 317 317 318 318 319 319 315 314 311 311 309 304 299 297 292 292 290 289 290 289 289 289 291 293 293 298 301 301 301 308 308 311 324
294 295 296 298 299 305 311 312 312 313 313 314 318 319 319 318 315 313 311 309 306 303 296 294 292 290 290 289 291 289 287 288 289 289 291 296 298 299 298 298 297 301 313
292 293 294 294 295 299 301 304 307 307 309 310 315 317 317 316 312 310 308 306 303 302 299 296 291 290 289 288 287 286 286 287 288 288 289 292 294 295 296 295 294 296 298
290 291 292 293 293 295 297 298 300 300 300 305 306 310 311 313 312 309 306 304 301 297 294 292 291 289 289 288 286 284 283 285 286 288 288 290 291 291 291 292 292 293 294
288 289 291 291 292 292 294 295 296 296 296 296 297 299 303 306 307 308 305 302 300 298 296 294 291 290 289 287 287 286 281 282 282 285 286 287 289 289 288 289 290 290 292
287 287 289 290 291 292 292 292 291 290 290 291 292 293 295 297 298 300 302 301 299 297 295 294 293 292 289 287 286 288 286 285 283 282 284 285 286 288 287 287 287 288 289
287 286 286 288 289 289 290 290 289 288 289 289 290 290 291 292 292 292 293 295 298 297 295 294 292 291 291 290 286 285 284 285 285 283 282 282 284 286 287 288 287 287 288
285 285 285 286 287 288 287 287 287 287 287 287 287 287 288 289 290 289 290 290 291 292 293 294 292 291 291 291 290 287 286 285 284 284 282 282 282 284 286 286 286 287 287
Wind_Speed
5 11 16 16 16 17 16 15 15 14 13 12 12 11 11 11 12 13 13 13 12 11 9 10 9 10 9 9 9 9 8 11 10 10 11 12 13 13 13 11 9 8 11
10 12 16 15 15 17 16 14 14 14 13 13 11 10 9 9 9 10 11 12 10 9 8 8 8 8 8 9 7 8 8 8 9 8 8 9 11 12 12 12 10 9 11
10 12 13 15 14 12 15 15 14 14 13 12 12 11 10 9 8 9 8 8 11 10 6 7 8 7 7 8 7 7 6 8 7 3 1 3 5 11 11 10 11 12 10
11 11 10 12 13 11 13 13 13 14 14 13 13 13 12 9 7 10 10 10 10 9 4 5 7 7 6 7 6 6 6 8 5 6 4 3 5 11 11 11 12 12 12
9 11 11 11 12 12 13 14 13 13 15 13 13 13 12 9 7 9 7 9 8 5 5 5 5 5 5 5 5 5 6 8 8 7 6 4 3 8 12 11 10 11 10
7 9 12 16 16 14 12 12 13 12 13 13 13 13 12 11 8 4 3 3 5 5 4 4 4 4 4 3 4 5 7 9 9 6 6 6 5 9 8 9 8 9 7
8 8 10 16 17 17 16 15 13 10 12 14 15 13 12 12 8 6 5 7 5 4 4 4 3 3 3 3 4 5 7 9 5 6 5 6 5 8 6 5 5 6 3
8 7 10 13 12 14 15 15 14 13 10 11 13 13 15 12 10 6 4 5 5 5 5 4 3 3 3 4 5 6 7 9 6 6 5 4 6 7 6 5 3 3 3
6 7 6 9 11 12 12 12 12 12 11 12 13 13 13 13 13 11 7 7 7 7 7 5 4 4 4 4 6 7 9 9 6 4 4 3 4 4 4 4 3 3 2
6 6 7 7 9 10 10 13 12 12 11 11 10 11 12 13 13 12 10 8 8 9 8 7 6 5 4 3 4 5 9 9 6 4 3 2 3 3 2 2 2 2 2
4 7 7 9 9 8 8 9 14 14 11 11 9 10 10 5 7 9 9 8 11 9 9 8 7 6 4 2 3 5 7 3 4 2 1 3 1 2 2 2 3 3 3
7 7 8 8 10 8 7 7 8 7 7 6 6 7 5 5 5 6 8 10 9 9 10 10 8 6 4 1 1 4 3 3 3 2 0 0 1 3 3 3 3 5 5
6 3 10 10 9 10 8 5 4 3 3 3 6 6 5 4 3 3 3 3 3 6 3 5 5 3 3 2 1 2 3 3 2 1 1 0 2 4 4 4 6 5 5
8 10 9 11 11 11 7 6 6 5 4 4 6 8 6 4 4 4 2 3 4 3 5 4 3 4 3 3 3 3 3 2 2 1 2 3 3 4 5 6 6 5 6
7 7 9 7 11 10 9 6 7 8 7 6 6 7 6 6 5 5 4 3 4 3 4 4 4 4 4 4 4 5 4 4 4 2 1 4 4 5 7 8 7 7 9
11 10 8 10 9 8 9 8 7 6 7 6 6 7 7 5 5 5 4 4 4 4 4 4 4 4 4 3 4 4 5 4 4 4 3 2 3 5 9 9 10 10 10
11 13 12 7 7 9 10 7 5 5 5 6 6 6 6 5 6 7 6 4 4 4 5 3 2 2 2 2 3 3 2 3 3 4 3 2 2 1 2 12 11 12 11
12 15 14 10 2 3 5 5 4 4 4 4 4 4 6 7 6 6 6 7 5 4 4 4 3 2 2 2 2 3 2 2 3 4 3 3 3 2 3 2 6 12 14
11 13 15 14 11 6 5 4 4 3 2 2 2 3 5 6 7 7 5 5 6 5 4 4 2 3 3 1 3 2 3 3 4 3 5 5 5 4 2 1 2 4 10
12 13 14 13 15 9 5 5 4 4 3 2 2 2 4 4 5 5 3 6 6 4 4 4 4 2 3 4 2 3 3 4 4 4 5 4 4 4 3 3 3 2 2
16 16 16 17 16 12 6 4 4 3 3 4 4 2 3 3 4 4 3 3 5 6 8 7 3 5 2 4 3 3 3 5 6 5 5 4 5 5 5 4 3 3 3
13 14 16 16 16 12 8 4 4 3 4 4 6 8 8 4 1 3 4 4 3 3 4 5 4 2 2 4 4 2 3 4 4 6 5 5 7 4 5 6 5 5 4
14 13 14 14 14 13 11 7 6 5 5 8 10 9 10 10 8 5 4 1 3 2 3 5 5 6 5 4 5 5 1 6 2 1 5 4 5 5 5 6 6 6 6
10 10 12 13 14 13 13 10 12 8 6 4 5 5 8 12 12 12 10 6 2 1 3 4 3 3 3 5 1 6 1 3 3 5 2 3 4 6 6 5 6 6 6
10 10 10 12 15 13 14 12 8 9 4 3 6 10 11 10 11 12 10 8 7 4 3 4 3 5 4 3 4 3 3 3 1 3 5 4 2 5 6 7 7 6 7
7 10 11 13 14 13 13 13 13 11 9 8 8 7 6 6 8 12 10 8 7 6 5 4 4 5 5 6 3 4 4 4 5 4 5 5 5 5 6 6 7 8 6
Wind_Direction
215 176 180 180 173 163 160 157 149 141 140 139 133 125 118 116 107 109 106 102 95 91 88 89 87 85 82 77 72 71 55 50 61 86 86 82 77 73 66 52 54 60 72
150 177 177 178 171 169 162 153 148 139 147 146 142 137 131 129 126 127 125 121 114 109 98 94 90 89 86 83 76 72 65 54 50 45 57 80 83 75 68 52 56 62 67
151 169 175 175 174 172 149 142 143 145 155 154 148 144 138 144 147 141 152 146 118 95 105 99 106 102 96 92 80 71 63 57 36 10 105 88 93 84 75 67 59 51 58
155 165 178 176 173 163 151 150 154 159 163 164 164 159 147 136 131 165 152 121 114 111 115 111 109 109 104 98 89 73 62 59 17 52 120 149 111 98 91 78 72 60 41
159 166 171 172 175 169 161 161 170 181 168 167 177 163 142 143 138 132 149 131 118 126 133 132 118 102 90 87 83 66 58 60 72 60 64 71 100 111 100 90 83 75 55
159 170 170 171 175 175 174 176 182 189 168 172 167 161 158 161 159 151 187 153 186 176 179 149 125 101 82 70 56 57 59 84 88 74 69 45 44 74 80 81 71 65 69
164 170 173 176 177 178 179 180 183 189 175 174 171 170 171 164 166 209 217 206 200 174 191 153 128 100 78 62 60 68 61 91 87 70 59 50 49 68 77 78 50 38 74
167 172 175 180 178 180 184 183 183 187 191 186 178 173 175 151 146 168 198 212 193 177 190 162 145 118 94 70 67 63 56 87 78 76 58 38 62 80 89 109 111 84 65
171 163 176 184 185 178 182 185 185 190 189 185 184 189 193 151 161 169 187 218 200 187 193 172 160 145 116 92 78 60 71 84 93 77 68 27 61 95 111 130 142 131 107
176 181 177 181 189 191 189 185 188 192 193 194 197 202 171 167 169 161 165 216 195 196 192 178 175 164 143 119 88 63 81 84 87 77 61 5 92 111 115 125 158 149 137
227 197 183 184 187 190 192 199 188 191 197 200 202 184 170 164 166 158 160 202 205 199 193 185 183 168 143 115 83 62 81 83 96 81 44 38 75 158 160 169 179 170 156
219 214 195 189 190 186 195 193 200 193 197 184 178 174 160 161 165 160 162 185 186 191 182 188 187 158 113 99 21 62 84 107 106 111 159 18 248 204 184 183 177 164 155
235 211 200 194 190 186 196 191 191 191 168 170 174 166 159 159 159 150 157 178 176 175 164 177 171 138 175 171 180 133 125 123 138 152 223 7 284 219 210 206 197 165 168
231 225 210 196 189 192 184 182 191 192 176 181 185 175 168 162 156 152 182 188 174 164 161 155 158 176 218 222 187 166 152 147 161 175 252 209 255 248 220 210 191 187 191
287 285 253 211 196 196 189 183 177 186 193 184 173 182 179 167 170 158 179 183 181 168 167 170 176 191 205 192 185 176 174 171 176 190 220 237 253 249 224 200 199 201 195
337 329 263 202 216 184 193 181 187 179 178 170 182 194 208 164 157 166 172 187 186 180 173 173 181 197 215 207 206 193 191 189 189 194 203 233 236 245 231 207 203 197 197
342 333 343 250 185 186 188 176 173 178 171 183 188 182 194 172 170 167 167 183 189 180 169 165 185 177 206 252 229 221 204 212 213 207 209 221 275 13 187 216 200 202 203
359 358 356 352 157 198 176 151 147 155 162 166 173 181 185 183 170 163 176 177 186 167 167 164 165 199 234 227 259 256 245 244 241 235 232 220 221 280 4 24 255 198 192
8 8 17 21 15 54 61 63 78 104 136 173 166 186 193 189 174 172 171 177 173 170 167 168 157 159 185 232 258 271 283 270 254 255 236 233 227 223 231 291 11 5 215
14 22 23 27 26 15 53 65 49 56 45 79 199 210 188 180 185 175 182 162 155 165 160 166 164 158 168 178 203 237 273 266 258 244 239 235 230 224 233 252 294 315 312
24 23 26 30 19 29 14 11 26 28 7 22 1 4 192 161 168 170 162 158 156 182 191 188 141 185 185 146 99 332 292 252 251 241 238 230 224 217 219 229 244 275 298
33 29 29 29 29 29 30 8 35 22 28 22 15 31 16 0 117 173 188 188 187 151 174 176 165 148 190 186 146 113 301 309 259 228 221 221 219 217 220 219 225 235 243
34 29 35 36 35 31 24 31 29 32 24 19 16 20 16 16 12 10 350 40 171 177 210 203 183 181 195 210 219 157 128 233 329 351 243 239 223 213 221 221 221 225 227
25 22 32 39 40 36 30 44 54 59 53 0 358 359 22 27 28 21 12 9 18 309 261 232 232 236 140 200 251 250 241 151 198 320 299 259 232 242 228 231 221 224 220
33 31 30 36 41 34 38 42 50 57 42 23 26 24 16 16 27 23 18 10 5 354 302 270 248 219 211 200 193 177 200 218 154 167 279 302 315 241 231 220 217 220 219
33 41 39 40 38 35 38 36 43 42 36 36 28 34 22 13 12 14 8 9 3 359 341 310 286 271 251 251 235 227 194 189 197 195 234 248 230 263 235 222 215 222 213